| time (UTC) | temp F | wind direction | speed MPH | gust MPH | rain 1hr in | rain 24hr in | rain mn in | humidity % | barometer mb |
| 20260509122352 | 49 | 1 | 0.0 | 0.0 | 0.00 | 0.00 | 0.00 | 58 | 1011.8 |
| 20260509121848 | 49 | 1 | 0.0 | 0.0 | 0.00 | 0.00 | 0.00 | 57 | 1011.6 |
| 20260509121346 | 49 | 1 | 0.0 | 0.0 | 0.00 | 0.00 | 0.00 | 57 | 1011.7 |
| 20260509120845 | 49 | 1 | 0.0 | 0.0 | 0.00 | 0.00 | 0.00 | 57 | 1011.7 |
| 20260509120323 | 49 | 1 | 0.0 | 0.0 | 0.00 | 0.00 | 0.00 | 57 | 1011.7 |
| 20260509115758 | 49 | 1 | 0.0 | 1.0 | 0.00 | 0.00 | 0.00 | 57 | 1011.6 |
| 20260509115258 | 49 | 1 | 0.0 | 1.0 | 0.00 | 0.00 | 0.00 | 57 | 1011.6 |
| 20260509114756 | 49 | 4 | 0.0 | 1.0 | 0.00 | 0.00 | 0.00 | 58 | 1011.6 |
| 20260509114243 | 48 | 359 | 0.0 | 1.0 | 0.00 | 0.00 | 0.00 | 59 | 1011.6 |
| 20260509113742 | 48 | 345 | 0.0 | 1.0 | 0.00 | 0.00 | 0.00 | 59 | 1011.7 |
| 20260509113236 | 48 | 345 | 0.0 | 2.0 | 0.00 | 0.00 | 0.00 | 58 | 1011.7 |
| 20260509112732 | 48 | 303 | 0.0 | 2.0 | 0.00 | 0.00 | 0.00 | 58 | 1011.8 |
| 20260509112211 | 48 | 308 | 1.0 | 3.0 | 0.00 | 0.00 | 0.00 | 58 | 1011.7 |
| 20260509111936 | 48 | 297 | 2.0 | 4.0 | 0.00 | 0.00 | 0.00 | 57 | 1011.7 |
| 20260509111156 | 48 | 316 | 1.0 | 4.0 | 0.00 | 0.00 | 0.00 | 57 | 1011.7 |
| 20260509110654 | 49 | 299 | 0.0 | 2.0 | 0.00 | 0.00 | 0.00 | 56 | 1011.6 |
| 20260509110426 | 49 | 321 | 0.0 | 3.0 | 0.00 | 0.00 | 0.00 | 56 | 1011.6 |
| 20260509105925 | 49 | 307 | 0.0 | 3.0 | 0.00 | 0.00 | 0.00 | 54 | 1011.7 |
| 20260509105152 | 49 | 288 | 0.0 | 0.0 | 0.00 | 0.00 | 0.00 | 52 | 1011.7 |
| 20260509104649 | 50 | 288 | 0.0 | 1.0 | 0.00 | 0.00 | 0.00 | 52 | 1011.7 |
| 20260509104139 | 50 | 288 | 0.0 | 1.0 | 0.00 | 0.00 | 0.00 | 51 | 1011.7 |
| 20260509103853 | 51 | 300 | 0.0 | 1.0 | 0.00 | 0.00 | 0.00 | 51 | 1011.9 |
| 20260509103124 | 52 | 44 | 0.0 | 0.0 | 0.00 | 0.00 | 0.00 | 51 | 1011.8 |
| 20260509102556 | 52 | 44 | 0.0 | 0.0 | 0.00 | 0.00 | 0.00 | 50 | 1011.8 |
| 20260509102049 | 52 | 44 | 0.0 | 0.0 | 0.00 | 0.00 | 0.00 | 49 | 1011.8 |
| 20260509101517 | 53 | 44 | 0.0 | 0.0 | 0.00 | 0.00 | 0.00 | 49 | 1011.9 |
| 20260509101236 | 54 | 44 | 0.0 | 0.0 | 0.00 | 0.00 | 0.00 | 48 | 1011.9 |
| 20260509100458 | 55 | 44 | 0.0 | 0.0 | 0.00 | 0.00 | 0.00 | 46 | 1012.0 |
| 20260509095955 | 56 | 105 | 0.0 | 3.0 | 0.00 | 0.00 | 0.00 | 47 | 1012.0 |
| 20260509095442 | 56 | 105 | 0.0 | 3.0 | 0.00 | 0.00 | 0.00 | 48 | 1012.0 |
| 20260509094936 | 56 | 197 | 0.0 | 1.0 | 0.00 | 0.00 | 0.00 | 48 | 1011.9 |
| 20260509094657 | 56 | 198 | 0.0 | 1.0 | 0.00 | 0.00 | 0.00 | 48 | 1012.0 |
| 20260509093849 | 56 | 198 | 0.0 | 2.0 | 0.00 | 0.00 | 0.00 | 48 | 1011.9 |
| 20260509093347 | 56 | 198 | 0.0 | 3.0 | 0.00 | 0.00 | 0.00 | 47 | 1011.9 |
| 20260509092834 | 56 | 176 | 1.0 | 3.0 | 0.00 | 0.00 | 0.00 | 47 | 1012.0 |
| 20260509092324 | 56 | 207 | 1.0 | 3.0 | 0.00 | 0.00 | 0.00 | 47 | 1012.1 |
| 20260509091819 | 56 | 207 | 1.0 | 5.0 | 0.00 | 0.00 | 0.00 | 47 | 1011.9 |
| 20260509091257 | 56 | 227 | 1.0 | 5.0 | 0.00 | 0.00 | 0.00 | 47 | 1012.0 |
| 20260509090756 | 57 | 221 | 1.0 | 4.0 | 0.00 | 0.00 | 0.00 | 47 | 1012.0 |
| 20260509090256 | 57 | 117 | 1.0 | 4.0 | 0.00 | 0.00 | 0.00 | 48 | 1011.9 |
| 20260509085756 | 56 | 128 | 0.0 | 3.0 | 0.00 | 0.00 | 0.00 | 48 | 1012.0 |
| 20260509085257 | 56 | 129 | 0.0 | 1.0 | 0.00 | 0.00 | 0.00 | 46 | 1011.8 |
| 20260509085020 | 57 | 130 | 0.0 | 1.0 | 0.00 | 0.00 | 0.00 | 46 | 1011.8 |
| 20260509084245 | 57 | 150 | 0.0 | 1.0 | 0.00 | 0.00 | 0.00 | 46 | 1011.8 |
| 20260509083718 | 57 | 154 | 1.0 | 4.0 | 0.00 | 0.00 | 0.00 | 46 | 1011.7 |
| 20260509083449 | 57 | 157 | 1.0 | 4.0 | 0.00 | 0.00 | 0.00 | 46 | 1011.8 |
| 20260509083323 | 57 | 155 | 1.0 | 4.0 | 0.00 | 0.00 | 0.00 | 45 | 1011.6 |
| 20260509082214 | 58 | 137 | 1.0 | 4.0 | 0.00 | 0.00 | 0.00 | 45 | 1011.6 |
| 20260509081949 | 58 | 102 | 2.0 | 6.0 | 0.00 | 0.00 | 0.00 | 44 | 1011.5 |
| 20260509081714 | 58 | 102 | 1.0 | 3.0 | 0.00 | 0.00 | 0.00 | 45 | 1011.6 |
| 20260509080705 | 58 | 102 | 3.0 | 6.0 | 0.00 | 0.00 | 0.00 | 44 | 1011.6 |
| 20260509080205 | 59 | 114 | 3.0 | 7.0 | 0.00 | 0.00 | 0.00 | 44 | 1011.7 |
| 20260509075934 | 59 | 102 | 3.0 | 7.0 | 0.00 | 0.00 | 0.00 | 43 | 1011.8 |
| 20260509075205 | 59 | 100 | 3.0 | 6.0 | 0.00 | 0.00 | 0.00 | 42 | 1011.7 |
| 20260509074704 | 60 | 79 | 4.0 | 7.0 | 0.00 | 0.00 | 0.00 | 42 | 1011.7 |
| 20260509074434 | 60 | 103 | 4.0 | 7.0 | 0.00 | 0.00 | 0.00 | 41 | 1011.7 |
| 20260509073705 | 60 | 84 | 4.0 | 7.0 | 0.00 | 0.00 | 0.00 | 41 | 1011.6 |
| 20260509073157 | 60 | 88 | 4.0 | 7.0 | 0.00 | 0.00 | 0.00 | 41 | 1011.7 |
| 20260509072659 | 60 | 89 | 4.0 | 8.0 | 0.00 | 0.00 | 0.00 | 40 | 1011.7 |
| 20260509072155 | 61 | 95 | 3.0 | 8.0 | 0.00 | 0.00 | 0.00 | 39 | 1011.7 |
| 20260509071655 | 61 | 101 | 3.0 | 8.0 | 0.00 | 0.00 | 0.00 | 39 | 1011.7 |
| 20260509071156 | 61 | 88 | 4.0 | 8.0 | 0.00 | 0.00 | 0.00 | 39 | 1011.6 |
| 20260509070655 | 61 | 94 | 5.0 | 10.0 | 0.00 | 0.00 | 0.00 | 39 | 1011.5 |
| 20260509070153 | 62 | 98 | 5.0 | 10.0 | 0.00 | 0.00 | 0.00 | 39 | 1011.5 |
| 20260509065924 | 61 | 90 | 3.0 | 8.0 | 0.00 | 0.00 | 0.00 | 39 | 1011.2 |
| 20260509065153 | 61 | 89 | 3.0 | 6.0 | 0.00 | 0.00 | 0.00 | 39 | 1011.2 |
| 20260509064651 | 61 | 72 | 3.0 | 6.0 | 0.00 | 0.00 | 0.00 | 39 | 1011.1 |
| 20260509064152 | 60 | 120 | 1.0 | 5.0 | 0.00 | 0.00 | 0.00 | 39 | 1011.2 |
| 20260509063652 | 60 | 85 | 0.0 | 3.0 | 0.00 | 0.00 | 0.00 | 39 | 1011.1 |
| 20260509063149 | 60 | 56 | 1.0 | 3.0 | 0.00 | 0.00 | 0.00 | 39 | 1010.9 |
| 20260509062649 | 60 | 58 | 2.0 | 4.0 | 0.00 | 0.00 | 0.00 | 39 | 1011.1 |
| 20260509062150 | 60 | 52 | 2.0 | 4.0 | 0.00 | 0.00 | 0.00 | 38 | 1011.0 |
| 20260509061650 | 61 | 68 | 2.0 | 5.0 | 0.00 | 0.00 | 0.00 | 37 | 1011.0 |
| 20260509061417 | 62 | 58 | 5.0 | 10.0 | 0.00 | 0.00 | 0.00 | 36 | 1010.8 |
| 20260509060647 | 62 | 61 | 5.0 | 10.0 | 0.00 | 0.00 | 0.00 | 37 | 1010.8 |
| 20260509060416 | 63 | 108 | 5.0 | 10.0 | 0.00 | 0.00 | 0.00 | 36 | 1010.7 |
| 20260509055648 | 63 | 107 | 8.0 | 12.0 | 0.00 | 0.00 | 0.00 | 36 | 1010.7 |
| 20260509055643 | 63 | 58 | 7.0 | 12.0 | 0.00 | 0.00 | 0.00 | 36 | 1010.7 |
| 20260509054643 | 62 | 91 | 7.0 | 11.0 | 0.00 | 0.00 | 0.00 | 37 | 1010.8 |
| 20260509054141 | 62 | 72 | 5.0 | 10.0 | 0.00 | 0.00 | 0.00 | 36 | 1010.8 |
| 20260509053642 | 62 | 117 | 4.0 | 9.0 | 0.00 | 0.00 | 0.00 | 36 | 1010.9 |
| 20260509053141 | 63 | 110 | 6.0 | 9.0 | 0.00 | 0.00 | 0.00 | 36 | 1010.8 |
| 20260509052639 | 63 | 94 | 6.0 | 11.0 | 0.00 | 0.00 | 0.00 | 36 | 1010.9 |
| 20260509052139 | 64 | 99 | 5.0 | 11.0 | 0.00 | 0.00 | 0.00 | 35 | 1010.8 |
| 20260509051640 | 63 | 111 | 4.0 | 7.0 | 0.00 | 0.00 | 0.00 | 36 | 1010.8 |
| 20260509051139 | 62 | 60 | 4.0 | 8.0 | 0.00 | 0.00 | 0.00 | 36 | 1010.8 |
| 20260509050910 | 62 | 60 | 4.0 | 8.0 | 0.00 | 0.00 | 0.00 | 36 | 1010.7 |
| 20260509050139 | 63 | 67 | 4.0 | 8.0 | 0.00 | 0.00 | 0.00 | 35 | 1010.8 |
| 20260509045908 | 63 | 56 | 4.0 | 7.0 | 0.00 | 0.00 | 0.00 | 35 | 1010.9 |
| 20260509045138 | 63 | 58 | 5.0 | 7.0 | 0.00 | 0.00 | 0.00 | 35 | 1010.9 |
| 20260509044637 | 63 | 47 | 5.0 | 7.0 | 0.00 | 0.00 | 0.00 | 34 | 1011.0 |
| 20260509044408 | 64 | 42 | 5.0 | 8.0 | 0.00 | 0.00 | 0.00 | 34 | 1011.0 |
| 20260509043639 | 64 | 21 | 6.0 | 9.0 | 0.00 | 0.00 | 0.00 | 34 | 1011.0 |
| 20260509043134 | 64 | 107 | 6.0 | 9.0 | 0.00 | 0.00 | 0.00 | 34 | 1011.2 |
| 20260509042633 | 65 | 92 | 7.0 | 10.0 | 0.00 | 0.00 | 0.00 | 33 | 1011.0 |
| 20260509042134 | 66 | 72 | 6.0 | 11.0 | 0.00 | 0.00 | 0.00 | 32 | 1011.1 |
| 20260509041906 | 66 | 97 | 5.0 | 11.0 | 0.00 | 0.00 | 0.00 | 32 | 1011.1 |
| 20260509041134 | 66 | 91 | 5.0 | 9.0 | 0.00 | 0.00 | 0.00 | 32 | 1011.0 |
| 20260509040633 | 66 | 101 | 6.0 | 10.0 | 0.00 | 0.00 | 0.00 | 32 | 1011.1 |
| 20260509040131 | 66 | 68 | 6.0 | 10.0 | 0.00 | 0.00 | 0.00 | 32 | 1011.2 |
| 20260509035629 | 66 | 94 | 7.0 | 11.0 | 0.00 | 0.00 | 0.00 | 32 | 1011.2 |
| 20260509035132 | 67 | 107 | 7.0 | 11.0 | 0.00 | 0.00 | 0.00 | 31 | 1011.2 |
| 20260509034628 | 67 | 91 | 7.0 | 10.0 | 0.00 | 0.00 | 0.00 | 31 | 1011.1 |
| 20260509034127 | 67 | 99 | 6.0 | 10.0 | 0.00 | 0.00 | 0.00 | 31 | 1011.1 |
| 20260509033629 | 66 | 107 | 4.0 | 10.0 | 0.00 | 0.00 | 0.00 | 31 | 1011.2 |
| 20260509033128 | 66 | 115 | 3.0 | 6.0 | 0.00 | 0.00 | 0.00 | 32 | 1011.1 |
| 20260509032628 | 67 | 109 | 4.0 | 6.0 | 0.00 | 0.00 | 0.00 | 31 | 1011.1 |
| 20260509032127 | 67 | 101 | 4.0 | 7.0 | 0.00 | 0.00 | 0.00 | 31 | 1011.0 |
| 20260509031623 | 67 | 89 | 4.0 | 7.0 | 0.00 | 0.00 | 0.00 | 30 | 1010.9 |
| 20260509031123 | 68 | 113 | 4.0 | 7.0 | 0.00 | 0.00 | 0.00 | 30 | 1010.8 |
| 20260509030624 | 69 | 97 | 4.0 | 9.0 | 0.00 | 0.00 | 0.00 | 29 | 1010.8 |
| 20260509030124 | 69 | 103 | 3.0 | 9.0 | 0.00 | 0.00 | 0.00 | 29 | 1010.7 |
| 20260509025621 | 70 | 71 | 4.0 | 8.0 | 0.00 | 0.00 | 0.00 | 28 | 1010.7 |
| 20260509025122 | 70 | 65 | 3.0 | 8.0 | 0.00 | 0.00 | 0.00 | 28 | 1010.7 |
| 20260509024621 | 71 | 55 | 3.0 | 5.0 | 0.00 | 0.00 | 0.00 | 28 | 1010.5 |
| 20260509024122 | 71 | 55 | 3.0 | 6.0 | 0.00 | 0.00 | 0.00 | 28 | 1010.5 |
| 20260509023622 | 71 | 53 | 3.0 | 6.0 | 0.00 | 0.00 | 0.00 | 27 | 1010.4 |
| 20260509023121 | 72 | 63 | 3.0 | 6.0 | 0.00 | 0.00 | 0.00 | 27 | 1010.3 |
| 20260509022848 | 72 | 71 | 2.0 | 5.0 | 0.00 | 0.00 | 0.00 | 27 | 1010.3 |
| 20260509022118 | 72 | 59 | 2.0 | 6.0 | 0.00 | 0.00 | 0.00 | 27 | 1010.2 |
| 20260509021619 | 73 | 67 | 3.0 | 7.0 | 0.00 | 0.00 | 0.00 | 26 | 1010.1 |
| 20260509021117 | 73 | 60 | 3.0 | 7.0 | 0.00 | 0.00 | 0.00 | 26 | 1010.0 |
| 20260509020615 | 74 | 58 | 3.0 | 9.0 | 0.00 | 0.00 | 0.00 | 26 | 1009.9 |
| 20260509020116 | 74 | 91 | 4.0 | 9.0 | 0.00 | 0.00 | 0.00 | 26 | 1009.9 |
| 20260509015615 | 75 | 96 | 4.0 | 9.0 | 0.00 | 0.00 | 0.00 | 25 | 1009.8 |
| 20260509015115 | 75 | 66 | 5.0 | 10.0 | 0.00 | 0.00 | 0.00 | 25 | 1009.7 |
| 20260509014614 | 76 | 83 | 6.0 | 12.0 | 0.00 | 0.00 | 0.00 | 25 | 1009.6 |
| 20260509014347 | 76 | 50 | 6.0 | 12.0 | 0.00 | 0.00 | 0.00 | 25 | 1009.6 |
| 20260509013612 | 76 | 33 | 5.0 | 8.0 | 0.00 | 0.00 | 0.00 | 24 | 1009.5 |
| 20260509013111 | 77 | 40 | 6.0 | 11.0 | 0.00 | 0.00 | 0.00 | 23 | 1009.5 |
| 20260509012612 | 77 | 49 | 6.0 | 11.0 | 0.00 | 0.00 | 0.00 | 23 | 1009.5 |
| 20260509012111 | 78 | 49 | 5.0 | 10.0 | 0.00 | 0.00 | 0.00 | 22 | 1009.5 |
| 20260509011609 | 78 | 21 | 6.0 | 11.0 | 0.00 | 0.00 | 0.00 | 22 | 1009.5 |
| 20260509011108 | 78 | 35 | 8.0 | 13.0 | 0.00 | 0.00 | 0.00 | 22 | 1009.4 |
| 20260509010609 | 78 | 46 | 9.0 | 13.0 | 0.00 | 0.00 | 0.00 | 22 | 1009.4 |
| 20260509010107 | 79 | 22 | 9.0 | 13.0 | 0.00 | 0.00 | 0.00 | 22 | 1009.3 |
| 20260509005608 | 79 | 36 | 8.0 | 14.0 | 0.00 | 0.00 | 0.00 | 21 | 1009.4 |
| 20260509005108 | 79 | 25 | 8.0 | 14.0 | 0.00 | 0.00 | 0.00 | 21 | 1009.3 |
| 20260509004605 | 80 | 37 | 8.0 | 14.0 | 0.00 | 0.00 | 0.00 | 21 | 1009.2 |
| 20260509004105 | 80 | 24 | 9.0 | 12.0 | 0.00 | 0.00 | 0.00 | 20 | 1009.2 |
| 20260509003835 | 80 | 32 | 9.0 | 12.0 | 0.00 | 0.00 | 0.00 | 20 | 1009.2 |
| 20260509003101 | 80 | 9 | 8.0 | 12.0 | 0.00 | 0.00 | 0.00 | 20 | 1009.1 |
| 20260509002600 | 80 | 40 | 9.0 | 14.0 | 0.00 | 0.00 | 0.00 | 21 | 1009.2 |
| 20260509002101 | 80 | 25 | 9.0 | 16.0 | 0.00 | 0.00 | 0.00 | 21 | 1009.1 |
| 20260509001557 | 81 | 25 | 8.0 | 16.0 | 0.00 | 0.00 | 0.00 | 20 | 1009.1 |
| 20260509001058 | 81 | 14 | 8.0 | 13.0 | 0.00 | 0.00 | 0.00 | 20 | 1009.0 |
| 20260509000558 | 81 | 6 | 8.0 | 13.0 | 0.00 | 0.00 | 0.00 | 20 | 1009.0 |
| 20260509000055 | 81 | 44 | 9.0 | 13.0 | 0.00 | 0.00 | 0.00 | 20 | 1009.0 |
| 20260508235555 | 81 | 23 | 8.0 | 13.0 | 0.00 | 0.00 | 0.00 | 20 | 1009.0 |
| 20260508235055 | 81 | 41 | 8.0 | 13.0 | 0.00 | 0.00 | 0.00 | 20 | 1009.0 |
| 20260508234554 | 81 | 48 | 10.0 | 14.0 | 0.00 | 0.00 | 0.00 | 20 | 1009.0 |
| 20260508234053 | 81 | 51 | 10.0 | 19.0 | 0.00 | 0.00 | 0.00 | 20 | 1009.0 |
| 20260508233553 | 81 | 25 | 10.0 | 19.0 | 0.00 | 0.00 | 0.00 | 20 | 1008.9 |
| 20260508233051 | 81 | 17 | 11.0 | 18.0 | 0.00 | 0.00 | 0.00 | 20 | 1008.9 |
| 20260508232551 | 81 | 20 | 12.0 | 18.0 | 0.00 | 0.00 | 0.00 | 21 | 1009.0 |
| 20260508232050 | 81 | 25 | 11.0 | 17.0 | 0.00 | 0.00 | 0.00 | 20 | 1009.0 |
| 20260508231549 | 82 | 34 | 9.0 | 15.0 | 0.00 | 0.00 | 0.00 | 19 | 1008.9 |
| 20260508231049 | 82 | 23 | 10.0 | 15.0 | 0.00 | 0.00 | 0.00 | 20 | 1008.9 |
| 20260508230550 | 81 | 28 | 12.0 | 20.0 | 0.00 | 0.00 | 0.00 | 20 | 1008.9 |
| 20260508230047 | 81 | 30 | 12.0 | 20.0 | 0.00 | 0.00 | 0.00 | 20 | 1008.9 |
| 20260508225548 | 82 | 17 | 12.0 | 18.0 | 0.00 | 0.00 | 0.00 | 20 | 1008.9 |
| 20260508225318 | 82 | 6 | 11.0 | 19.0 | 0.00 | 0.00 | 0.00 | 19 | 1008.9 |
| 20260508225153 | 83 | 6 | 8.0 | 19.0 | 0.00 | 0.00 | 0.00 | 19 | 1008.7 |
| 20260508224045 | 82 | 5 | 10.0 | 20.0 | 0.00 | 0.00 | 0.00 | 19 | 1008.8 |
| 20260508223545 | 82 | 41 | 12.0 | 20.0 | 0.00 | 0.00 | 0.00 | 19 | 1008.9 |
| 20260508223043 | 81 | 37 | 12.0 | 20.0 | 0.00 | 0.00 | 0.00 | 19 | 1008.8 |
| 20260508222544 | 82 | 27 | 10.0 | 20.0 | 0.00 | 0.00 | 0.00 | 19 | 1008.8 |
| 20260508222041 | 82 | 12 | 9.0 | 15.0 | 0.00 | 0.00 | 0.00 | 19 | 1008.8 |
| 20260508221541 | 82 | 20 | 12.0 | 21.0 | 0.00 | 0.00 | 0.00 | 19 | 1008.8 |
| 20260508221312 | 83 | 352 | 11.0 | 21.0 | 0.00 | 0.00 | 0.00 | 18 | 1009.0 |
| 20260508220538 | 83 | 14 | 9.0 | 16.0 | 0.00 | 0.00 | 0.00 | 18 | 1008.9 |
| 20260508220038 | 82 | 21 | 10.0 | 19.0 | 0.00 | 0.00 | 0.00 | 18 | 1009.0 |
| 20260508215533 | 82 | 12 | 12.0 | 19.0 | 0.00 | 0.00 | 0.00 | 18 | 1009.0 |
| 20260508215306 | 82 | 334 | 13.0 | 23.0 | 0.00 | 0.00 | 0.00 | 18 | 1009.0 |
| 20260508214533 | 83 | 6 | 13.0 | 23.0 | 0.00 | 0.00 | 0.00 | 18 | 1009.0 |
| 20260508214031 | 83 | 7 | 11.0 | 20.0 | 0.00 | 0.00 | 0.00 | 18 | 1009.0 |
| 20260508213528 | 83 | 32 | 10.0 | 17.0 | 0.00 | 0.00 | 0.00 | 18 | 1008.9 |
| 20260508213033 | 83 | 0 | 13.0 | 22.0 | 0.00 | 0.00 | 0.00 | 17 | 1009.0 |
| 20260508213029 | 83 | 32 | 11.0 | 19.0 | 0.00 | 0.00 | 0.00 | 17 | 1009.0 |
| 20260508212634 | 84 | 359 | 12.0 | 22.0 | 0.00 | 0.00 | 0.00 | 17 | 1009.1 |
| 20260508211526 | 83 | 50 | 10.0 | 19.0 | 0.00 | 0.00 | 0.00 | 18 | 1009.1 |
| 20260508211258 | 83 | 32 | 9.0 | 19.0 | 0.00 | 0.00 | 0.00 | 18 | 1009.0 |
| 20260508210527 | 82 | 1 | 11.0 | 16.0 | 0.00 | 0.00 | 0.00 | 18 | 1009.1 |
| 20260508210258 | 83 | 3 | 11.0 | 18.0 | 0.00 | 0.00 | 0.00 | 17 | 1009.3 |
| 20260508205502 | 83 | 355 | 9.0 | 17.0 | 0.00 | 0.00 | 0.00 | 17 | 1009.2 |
| 20260508205001 | 82 | 28 | 9.0 | 16.0 | 0.00 | 0.00 | 0.00 | 18 | 1009.4 |
| 20260508204502 | 83 | 21 | 11.0 | 20.0 | 0.00 | 0.00 | 0.00 | 18 | 1009.4 |
| 20260508203955 | 83 | 1 | 10.0 | 20.0 | 0.00 | 0.00 | 0.00 | 18 | 1009.4 |
| 20260508203455 | 83 | 356 | 7.0 | 14.0 | 0.00 | 0.00 | 0.00 | 18 | 1009.4 |
| 20260508202955 | 82 | 18 | 10.0 | 19.0 | 0.00 | 0.00 | 0.00 | 18 | 1009.5 |
| 20260508202455 | 83 | 7 | 10.0 | 19.0 | 0.00 | 0.00 | 0.00 | 18 | 1009.5 |
| 20260508201954 | 82 | 19 | 10.0 | 19.0 | 0.00 | 0.00 | 0.00 | 19 | 1009.5 |
| 20260508201453 | 81 | 359 | 10.0 | 23.0 | 0.00 | 0.00 | 0.00 | 20 | 1009.5 |
| 20260508200949 | 83 | 11 | 10.0 | 23.0 | 0.00 | 0.00 | 0.00 | 20 | 1009.6 |
| 20260508200447 | 82 | 337 | 11.0 | 19.0 | 0.00 | 0.00 | 0.00 | 20 | 1009.7 |
| 20260508195946 | 82 | 11 | 9.0 | 16.0 | 0.00 | 0.00 | 0.00 | 19 | 1009.9 |
| 20260508195446 | 82 | 11 | 10.0 | 19.0 | 0.00 | 0.00 | 0.00 | 19 | 1009.9 |
| 20260508194945 | 82 | 5 | 11.0 | 19.0 | 0.00 | 0.00 | 0.00 | 19 | 1009.8 |
| 20260508194714 | 82 | 37 | 10.0 | 17.0 | 0.00 | 0.00 | 0.00 | 18 | 1010.0 |
| 20260508193942 | 81 | 40 | 11.0 | 18.0 | 0.00 | 0.00 | 0.00 | 19 | 1009.9 |
| 20260508193443 | 82 | 8 | 11.0 | 18.0 | 0.00 | 0.00 | 0.00 | 19 | 1009.9 |
| 20260508192941 | 82 | 359 | 10.0 | 20.0 | 0.00 | 0.00 | 0.00 | 19 | 1009.9 |
| 20260508192440 | 81 | 359 | 11.0 | 20.0 | 0.00 | 0.00 | 0.00 | 19 | 1009.9 |
| 20260508191941 | 82 | 4 | 10.0 | 19.0 | 0.00 | 0.00 | 0.00 | 19 | 1009.9 |
| 20260508191439 | 81 | 11 | 10.0 | 22.0 | 0.00 | 0.00 | 0.00 | 20 | 1009.9 |
| 20260508191210 | 81 | 1 | 11.0 | 22.0 | 0.00 | 0.00 | 0.00 | 20 | 1009.9 |
| 20260508190710 | 81 | 348 | 11.0 | 18.0 | 0.00 | 0.00 | 0.00 | 20 | 1009.7 |
| 20260508185936 | 81 | 1 | 9.0 | 15.0 | 0.00 | 0.00 | 0.00 | 19 | 1010.0 |
| 20260508185438 | 80 | 329 | 8.0 | 15.0 | 0.00 | 0.00 | 0.00 | 20 | 1010.0 |
| 20260508184937 | 80 | 17 | 7.0 | 14.0 | 0.00 | 0.00 | 0.00 | 21 | 1010.1 |
| 20260508184436 | 80 | 11 | 7.0 | 12.0 | 0.00 | 0.00 | 0.00 | 22 | 1010.1 |
| 20260508183937 | 80 | 5 | 8.0 | 16.0 | 0.00 | 0.00 | 0.00 | 22 | 1010.2 |
| 20260508183705 | 80 | 0 | 7.0 | 16.0 | 0.00 | 0.00 | 0.00 | 22 | 1010.2 |
| 20260508182935 | 80 | 13 | 6.0 | 14.0 | 0.00 | 0.00 | 0.00 | 21 | 1010.4 |
| 20260508182707 | 79 | 314 | 5.0 | 14.0 | 0.00 | 0.00 | 0.00 | 22 | 1010.3 |
| 20260508181934 | 79 | 0 | 2.0 | 10.0 | 0.00 | 0.00 | 0.00 | 22 | 1010.4 |
| 20260508181436 | 79 | 324 | 2.0 | 7.0 | 0.00 | 0.00 | 0.00 | 22 | 1010.5 |
| 20260508180935 | 78 | 293 | 2.0 | 9.0 | 0.00 | 0.00 | 0.00 | 23 | 1010.5 |
| 20260508180435 | 78 | 266 | 4.0 | 11.0 | 0.00 | 0.00 | 0.00 | 24 | 1010.5 |
| 20260508175932 | 78 | 247 | 4.0 | 11.0 | 0.00 | 0.00 | 0.00 | 24 | 1010.6 |
| 20260508175434 | 78 | 329 | 4.0 | 10.0 | 0.00 | 0.00 | 0.00 | 24 | 1010.6 |
| 20260508174929 | 77 | 260 | 4.0 | 10.0 | 0.00 | 0.00 | 0.00 | 25 | 1010.7 |
| 20260508174426 | 78 | 358 | 3.0 | 10.0 | 0.00 | 0.00 | 0.00 | 25 | 1010.8 |
| 20260508173928 | 77 | 77 | 4.0 | 9.0 | 0.00 | 0.00 | 0.00 | 26 | 1010.9 |
| 20260508173426 | 76 | 314 | 5.0 | 10.0 | 0.00 | 0.00 | 0.00 | 26 | 1011.1 |
| 20260508172926 | 77 | 344 | 4.0 | 10.0 | 0.00 | 0.00 | 0.00 | 25 | 1011.1 |
| 20260508172701 | 77 | 266 | 2.0 | 9.0 | 0.00 | 0.00 | 0.00 | 26 | 1011.2 |
| 20260508171924 | 77 | 288 | 3.0 | 9.0 | 0.00 | 0.00 | 0.00 | 26 | 1011.2 |
| 20260508171423 | 76 | 271 | 3.0 | 9.0 | 0.00 | 0.00 | 0.00 | 26 | 1011.3 |
| 20260508170917 | 76 | 346 | 1.0 | 9.0 | 0.00 | 0.00 | 0.00 | 26 | 1011.4 |
| 20260508170416 | 76 | 212 | 2.0 | 8.0 | 0.00 | 0.00 | 0.00 | 28 | 1011.4 |
| 20260508165916 | 76 | 326 | 3.0 | 8.0 | 0.00 | 0.00 | 0.00 | 28 | 1011.5 |
| 20260508165418 | 75 | 13 | 2.0 | 5.0 | 0.00 | 0.00 | 0.00 | 30 | 1011.5 |
| 20260508164916 | 75 | 25 | 2.0 | 6.0 | 0.00 | 0.00 | 0.00 | 33 | 1011.5 |
| 20260508164908 | 74 | 212 | 2.0 | 6.0 | 0.00 | 0.00 | 0.00 | 35 | 1011.7 |
| 20260508163903 | 73 | 321 | 2.0 | 8.0 | 0.00 | 0.00 | 0.00 | 36 | 1011.8 |
| 20260508163633 | 73 | 253 | 2.0 | 8.0 | 0.00 | 0.00 | 0.00 | 36 | 1011.9 |
| 20260508162903 | 73 | 290 | 3.0 | 8.0 | 0.00 | 0.00 | 0.00 | 38 | 1011.9 |
| 20260508162400 | 72 | 219 | 4.0 | 11.0 | 0.00 | 0.00 | 0.00 | 38 | 1012.0 |
| 20260508161856 | 72 | 257 | 4.0 | 11.0 | 0.00 | 0.00 | 0.00 | 39 | 1012.1 |
| 20260508161357 | 71 | 290 | 5.0 | 8.0 | 0.00 | 0.00 | 0.00 | 40 | 1012.1 |
| 20260508160854 | 70 | 276 | 6.0 | 12.0 | 0.00 | 0.00 | 0.00 | 41 | 1012.2 |
| 20260508160354 | 70 | 304 | 6.0 | 12.0 | 0.00 | 0.00 | 0.00 | 41 | 1012.1 |
| 20260508155856 | 70 | 309 | 5.0 | 11.0 | 0.00 | 0.00 | 0.00 | 41 | 1012.2 |
| 20260508155352 | 69 | 297 | 6.0 | 11.0 | 0.00 | 0.00 | 0.00 | 42 | 1012.3 |
| 20260508154852 | 69 | 238 | 7.0 | 12.0 | 0.00 | 0.00 | 0.00 | 43 | 1012.3 |
| 20260508154623 | 68 | 265 | 7.0 | 12.0 | 0.00 | 0.00 | 0.00 | 43 | 1012.3 |
| 20260508153850 | 68 | 257 | 6.0 | 13.0 | 0.00 | 0.00 | 0.00 | 44 | 1012.4 |
| 20260508153350 | 67 | 283 | 7.0 | 13.0 | 0.00 | 0.00 | 0.00 | 47 | 1012.4 |
| 20260508152849 | 67 | 249 | 8.0 | 16.0 | 0.00 | 0.00 | 0.00 | 47 | 1012.5 |
| 20260508152348 | 67 | 224 | 7.0 | 16.0 | 0.00 | 0.00 | 0.00 | 48 | 1012.7 |
| 20260508152119 | 66 | 89 | 7.0 | 15.0 | 0.00 | 0.00 | 0.00 | 49 | 1012.5 |
| 20260508151347 | 66 | 269 | 7.0 | 13.0 | 0.00 | 0.00 | 0.00 | 50 | 1012.6 |
| 20260508150846 | 66 | 254 | 8.0 | 14.0 | 0.00 | 0.00 | 0.00 | 51 | 1012.6 |
| 20260508150346 | 66 | 231 | 7.0 | 15.0 | 0.00 | 0.00 | 0.00 | 52 | 1012.6 |
| 20260508145846 | 65 | 264 | 6.0 | 15.0 | 0.00 | 0.00 | 0.00 | 52 | 1012.5 |
| 20260508145615 | 65 | 347 | 7.0 | 14.0 | 0.00 | 0.00 | 0.00 | 55 | 1012.6 |
| 20260508144844 | 63 | 279 | 7.0 | 14.0 | 0.00 | 0.00 | 0.00 | 58 | 1012.5 |
| 20260508144615 | 63 | 274 | 7.0 | 13.0 | 0.00 | 0.00 | 0.00 | 58 | 1012.7 |
| 20260508143842 | 63 | 202 | 7.0 | 15.0 | 0.00 | 0.00 | 0.00 | 58 | 1012.7 |
| 20260508143342 | 63 | 217 | 8.0 | 15.0 | 0.00 | 0.00 | 0.00 | 59 | 1012.8 |
| 20260508142843 | 62 | 224 | 8.0 | 15.0 | 0.00 | 0.00 | 0.00 | 59 | 1012.8 |
| 20260508142613 | 62 | 241 | 8.0 | 15.0 | 0.00 | 0.00 | 0.00 | 58 | 1012.9 |
| 20260508141843 | 62 | 254 | 7.0 | 17.0 | 0.00 | 0.00 | 0.00 | 60 | 1013.0 |
| 20260508141343 | 62 | 182 | 8.0 | 17.0 | 0.00 | 0.00 | 0.00 | 61 | 1013.0 |
| 20260508140840 | 61 | 211 | 9.0 | 17.0 | 0.00 | 0.00 | 0.00 | 61 | 1013.0 |
| 20260508140338 | 61 | 248 | 8.0 | 15.0 | 0.00 | 0.00 | 0.00 | 62 | 1013.1 |
| 20260508135836 | 61 | 274 | 7.0 | 14.0 | 0.00 | 0.00 | 0.00 | 62 | 1013.2 |
| 20260508135337 | 61 | 285 | 8.0 | 14.0 | 0.00 | 0.00 | 0.00 | 63 | 1013.3 |
| 20260508134837 | 60 | 248 | 8.0 | 15.0 | 0.00 | 0.00 | 0.00 | 63 | 1013.2 |
| 20260508134341 | 60 | 225 | 8.0 | 17.0 | 0.00 | 0.00 | 0.00 | 64 | 1013.2 |
| 20260508133836 | 60 | 250 | 7.0 | 17.0 | 0.00 | 0.00 | 0.00 | 65 | 1013.0 |
| 20260508133336 | 59 | 207 | 6.0 | 15.0 | 0.00 | 0.00 | 0.00 | 66 | 1012.9 |
| 20260508132836 | 58 | 273 | 7.0 | 15.0 | 0.00 | 0.00 | 0.00 | 67 | 1012.9 |
| 20260508132336 | 58 | 257 | 6.0 | 15.0 | 0.00 | 0.00 | 0.00 | 67 | 1012.9 |
| 20260508132102 | 57 | 231 | 5.0 | 11.0 | 0.00 | 0.00 | 0.00 | 68 | 1013.1 |
| 20260508131330 | 56 | 179 | 6.0 | 12.0 | 0.00 | 0.00 | 0.00 | 68 | 1013.2 |
| 20260508131101 | 56 | 246 | 5.0 | 12.0 | 0.00 | 0.00 | 0.00 | 68 | 1013.1 |
| 20260508130328 | 56 | 226 | 4.0 | 11.0 | 0.00 | 0.00 | 0.00 | 69 | 1013.1 |
| 20260508125328 | 55 | 269 | 5.0 | 10.0 | 0.00 | 0.00 | 0.00 | 70 | 1013.1 |
| 20260508124827 | 55 | 345 | 4.0 | 10.0 | 0.00 | 0.00 | 0.00 | 71 | 1013.1 |
| 20260508124327 | 54 | 252 | 5.0 | 9.0 | 0.00 | 0.00 | 0.00 | 71 | 1013.0 |
| 20260508124057 | 54 | 205 | 4.0 | 11.0 | 0.00 | 0.00 | 0.00 | 70 | 1013.2 |
| 20260508123324 | 54 | 224 | 4.0 | 11.0 | 0.00 | 0.00 | 0.00 | 71 | 1013.1 |
| 20260508122824 | 54 | 213 | 5.0 | 11.0 | 0.00 | 0.00 | 0.00 | 71 | 1012.8 |